[[{"header":{"parameterUnit":"m.s-1","parameterCategory":1,"la1":30.2991,"la2":30.254,"lo1":-89.0895,"lo2":-89.0444,"dy":0.0017,"dx":0.0017,"nx":28,"ny":28,"refTime":"2025-04-15T03:00:00:Z","depth":0,"parameterNumber":2,"parameterNumberName":"U-component_of_WINDS"},"data":[0,0,0,0,0,0,0,0,0,0,0,0,0,0,0,0,0,0,0,0,0,0,0,0,0,0,0,0,0,0,0,0,0,0,0,0,0,0,0,0,0,0,0,0,0,0,0,0,0,0,0,0,0,0,0,0,0,0,4.784,4.7841,0,4.7959,4.796,4.7962,4.7913,4.791,4.7907,4.7904,4.8029,4.8034,4.804,0,0,0,0,0,0,0,0,0,0,0,0,0,4.7574,4.7579,4.784,4.7841,4.7843,4.7959,4.796,4.7962,4.7913,4.791,4.7906,4.7903,4.8027,4.8034,4.8041,0,0,0,0,0,0,0,0,0,0,0,0,0,4.7691,4.7581,4.7839,4.7832,4.7833,4.7958,4.796,4.7962,4.7914,4.791,4.7905,4.7901,4.8024,4.8033,4.8042,4.8182,0,0,4.8069,4.8073,0,0,0,0,0,0,0,0,4.7684,4.7701,4.7832,4.7833,4.7834,4.7916,4.7912,4.8036,4.7915,4.7883,4.7904,4.7899,4.7995,4.8006,4.8038,4.8188,4.8193,4.807,4.8075,4.8079,4.8082,0,0,0,0,0,0,0,4.7676,4.7695,4.7887,4.7834,4.7835,4.7824,4.7836,4.7935,4.7962,4.7886,4.7882,4.7897,4.7995,4.8029,4.804,4.8195,4.807,4.8078,4.8083,4.8087,4.8469,4.8474,0,0,0,0,0,0,4.7667,4.7689,4.7883,4.789,4.7747,4.7833,4.7846,4.7894,4.796,4.7966,4.7901,4.7894,4.8016,4.803,4.8044,4.8215,4.8079,4.8087,4.8093,4.8465,4.847,4.8476,0,0,0,0,0,0,4.7662,4.7685,4.7878,4.7789,4.7813,4.7842,4.7896,4.7899,4.7933,4.7972,4.7976,4.7931,4.8013,4.8032,4.8149,4.8218,4.8091,4.81,4.8459,4.8466,4.8473,4.8555,0,0,0,0,0,0,4.7654,4.7683,4.7736,4.779,4.7817,4.7979,4.7901,4.7904,4.7949,4.7942,4.8001,4.8007,4.8011,4.8136,4.8158,4.8228,4.8106,4.8453,4.8462,4.8471,4.8547,4.8564,4.858,0,0,0,0,0,4.7645,4.7754,4.7739,4.7763,4.7884,4.7983,4.7999,4.8001,4.7954,4.8008,4.8033,4.8005,4.8207,4.8148,4.8172,4.8247,4.8448,4.846,4.847,4.8539,4.8561,4.8579,0,0,0,0,0,0,4.7707,4.7761,4.7745,4.7874,4.7925,4.7975,4.8043,4.8024,4.8089,4.808,4.8081,4.8095,4.8216,4.8243,4.8176,4.8388,4.8321,4.8337,4.8365,4.8386,4.8403,4.8394,4.8114,0,0,0,0,0,4.7736,4.7812,4.7855,4.7965,4.7992,4.8013,4.8057,4.8054,4.8107,4.8128,4.8161,4.8214,4.829,4.8339,4.8411,4.8551,4.8564,4.8614,4.8631,4.8644,4.8658,4.8737,4.876,4.8511,4.8511,4.8511,0,0,4.7796,4.7835,4.7883,4.7979,4.8018,4.8098,4.8031,4.8118,4.8178,4.8141,4.8254,4.8281,4.834,4.8469,4.8528,4.8496,4.873,4.8658,4.8668,4.8675,4.875,4.8774,4.8795,4.8519,4.8517,4.8516,0,0,4.7947,4.7983,4.808,4.8121,4.818,4.8194,4.8218,4.8272,4.8288,4.8401,4.8376,4.8448,4.8578,4.8622,4.8661,4.8832,4.8809,4.8855,4.8942,4.9019,4.9038,4.9056,4.9118,4.914,4.8869,4.8869,4.887,0,4.8014,4.8132,4.8132,4.8222,4.8266,4.8237,4.8337,4.8376,4.8457,4.8488,4.8451,4.8615,4.8653,4.8793,4.8835,4.8867,4.8896,4.8848,4.9035,4.9053,4.9069,4.9129,4.9152,4.8875,4.8874,4.8874,4.8873,0,4.8214,4.8296,4.8368,4.8446,4.8498,4.8592,4.8608,4.8661,4.8655,4.8674,4.8791,4.8836,4.8917,4.895,4.8944,4.9091,4.9069,4.9034,4.8967,4.9098,4.9154,4.9177,4.8882,4.888,4.8879,4.8878,0,0,4.8405,4.8484,4.851,4.8547,4.8612,4.8676,4.8771,4.885,4.8896,4.8953,4.9033,4.9145,4.9114,4.9158,4.9158,4.9225,4.936,4.9182,4.9183,4.9214,4.9526,4.9553,4.9579,4.9345,4.935,4.9353,4.9522,0,4.8562,4.8725,4.8729,4.888,4.8958,4.8933,4.9015,4.9065,4.9086,4.9156,4.9179,4.9259,4.921,4.9237,4.9302,4.933,4.9423,4.9317,4.9421,4.9425,4.9408,4.9608,4.9636,4.9793,4.9544,4.9547,4.955,0,4.8766,4.883,4.8988,4.9044,4.9077,4.9151,4.9225,4.9292,4.9349,4.936,4.9411,4.9402,4.95,4.943,4.9566,4.9495,4.9538,4.9558,4.9564,4.9574,4.9496,4.9625,4.9843,4.9867,4.9584,4.9582,4.9579,0,4.8891,4.9017,4.9129,4.9161,4.9229,4.9282,4.9312,4.9365,4.9413,4.9479,4.9511,4.9587,4.9629,4.9689,4.9701,4.9649,4.9839,4.9769,4.9852,4.9852,4.9893,4.989,5.0122,4.992,4.9919,4.9919,4.9918,0,4.9066,4.9164,4.9187,4.9255,4.9366,4.9371,4.948,4.9507,4.9555,4.963,4.9613,4.9684,4.9696,4.977,4.978,4.9893,4.9912,4.9924,4.9926,4.9926,4.9925,4.9955,4.9944,4.9925,4.9924,4.9922,4.9921,0,4.9225,4.9243,4.9364,4.9419,4.9435,4.9514,4.9562,4.9629,4.9648,4.9744,4.9767,4.9798,4.9885,4.9903,5.0006,5.0013,5.0147,5.0138,5.0128,5.0127,5.0209,5.0201,5.0468,5.0504,5.0278,5.028,5.0282,0,4.9335,4.9411,4.9474,4.9523,4.9557,4.9635,4.9685,4.9693,4.9746,4.9818,4.9877,4.9962,5.003,5.0171,5.0204,5.0283,5.0276,5.0364,5.0288,5.0286,5.0279,5.0275,5.0283,5.0379,5.0381,5.0383,5.0385,0,4.953,4.9536,4.9608,4.9684,4.9743,4.9804,4.9861,4.9902,4.9919,4.9979,5.0068,5.0121,5.0227,5.0312,5.0392,5.0425,5.0409,5.0409,5.0432,5.0433,5.0425,5.0432,5.0169,5.0402,5.0401,5.0399,5.0398,5.0398,4.9669,4.9736,4.9791,4.9873,4.9917,4.9971,5.0037,5.0066,5.0139,5.0226,5.0227,5.0324,5.0382,5.0488,5.0526,5.0604,5.0576,5.061,5.0619,5.0627,5.0635,5.0412,5.0618,5.0618,5.0617,5.0617,5.0617,0,4.9864,4.9899,4.9974,5.0055,5.012,5.0098,5.0161,5.0217,5.0302,5.0357,5.0425,5.0529,5.0612,5.0652,5.0735,5.079,5.0785,5.0811,5.0808,5.0816,5.0654,5.0626,5.0814,5.0814,5.0814,5.0814,5.0814,5.0814,4.9973,5.0085,5.0099,5.0234,5.0268,5.0363,5.0401,5.0452,5.0496,5.0612,5.0681,5.0707,5.0757,5.0844,5.092,5.093,5.0962,5.0993,5.0999,5.0847,5.0827,5.0808,5.0782,5.0999,5.1,5.1155,5.1156,5.1157]},{"header":{"parameterUnit":"m.s-1","parameterCategory":1,"la1":30.2991,"la2":30.254,"lo1":-89.0895,"lo2":-89.0444,"dy":0.0017,"dx":0.0017,"nx":28,"ny":28,"refTime":"2025-04-15T03:00:00:Z","depth":0,"parameterNumber":3,"parameterNumberName":"V-component_of_WINDS"},"data":[0,0,0,0,0,0,0,0,0,0,0,0,0,0,0,0,0,0,0,0,0,0,0,0,0,0,0,0,0,0,0,0,0,0,0,0,0,0,0,0,0,0,0,0,0,0,0,0,0,0,0,0,0,0,0,0,0,0,-3.0436,-3.0435,0,-3.0399,-3.0399,-3.0399,-3.0396,-3.0397,-3.0397,-3.0398,-3.0356,-3.0354,-3.0353,0,0,0,0,0,0,0,0,0,0,0,0,0,-3.05,-3.0499,-3.0436,-3.0435,-3.0435,-3.04,-3.0399,-3.0398,-3.0396,-3.0397,-3.0397,-3.0398,-3.0356,-3.0354,-3.0353,0,0,0,0,0,0,0,0,0,0,0,0,0,-3.0468,-3.0498,-3.0436,-3.043,-3.0429,-3.04,-3.0399,-3.0398,-3.0396,-3.0397,-3.0398,-3.0398,-3.0357,-3.0355,-3.0352,-3.0325,0,0,-3.0345,-3.0344,0,0,0,0,0,0,0,0,-3.047,-3.0466,-3.0431,-3.043,-3.0429,-3.0403,-3.0406,-3.0374,-3.0396,-3.0408,-3.0398,-3.0398,-3.0371,-3.0367,-3.0359,-3.0323,-3.0322,-3.0345,-3.0344,-3.0343,-3.0342,0,0,0,0,0,0,0,-3.0472,-3.0468,-3.0421,-3.0431,-3.0429,-3.0428,-3.0424,-3.04,-3.0386,-3.0407,-3.0407,-3.0403,-3.037,-3.0361,-3.0358,-3.0321,-3.0345,-3.0343,-3.0342,-3.0341,-3.0261,-3.0261,0,0,0,0,0,0,-3.0476,-3.0469,-3.0422,-3.042,-3.0452,-3.0426,-3.0422,-3.0411,-3.0387,-3.0384,-3.0403,-3.0403,-3.0365,-3.0361,-3.0356,-3.0323,-3.0343,-3.0341,-3.0339,-3.0262,-3.0261,-3.026,0,0,0,0,0,0,-3.0478,-3.0472,-3.0424,-3.0445,-3.0439,-3.0424,-3.0412,-3.041,-3.0401,-3.0383,-3.038,-3.0396,-3.0365,-3.036,-3.0333,-3.0321,-3.034,-3.0338,-3.0263,-3.0262,-3.0261,-3.0256,0,0,0,0,0,0,-3.048,-3.0473,-3.0463,-3.0445,-3.0438,-3.0403,-3.0411,-3.0409,-3.0397,-3.0398,-3.0376,-3.0373,-3.0365,-3.0337,-3.0331,-3.0319,-3.0336,-3.0264,-3.0262,-3.0261,-3.0257,-3.0255,-3.0253,0,0,0,0,0,-3.0482,-3.0462,-3.0463,-3.0457,-3.0425,-3.0402,-3.0398,-3.039,-3.0396,-3.0386,-3.0375,-3.0374,-3.0324,-3.0334,-3.0328,-3.0314,-3.0265,-3.0263,-3.0261,-3.0258,-3.0255,-3.0253,0,0,0,0,0,0,-3.0478,-3.046,-3.046,-3.0434,-3.042,-3.0402,-3.0388,-3.0388,-3.037,-3.0371,-3.0361,-3.0356,-3.033,-3.032,-3.0331,-3.0287,-3.0295,-3.0292,-3.0294,-3.0292,-3.029,-3.0292,-3.0334,0,0,0,0,0,-3.0474,-3.0458,-3.0443,-3.0421,-3.0414,-3.0403,-3.0392,-3.0388,-3.0372,-3.0365,-3.0352,-3.0336,-3.0316,-3.0304,-3.0285,-3.0256,-3.0251,-3.0244,-3.0241,-3.024,-3.0237,-3.022,-3.0216,-3.0255,-3.0255,-3.0255,0,0,-3.0466,-3.0454,-3.0444,-3.042,-3.0409,-3.0391,-3.0397,-3.0378,-3.0364,-3.0362,-3.0337,-3.0327,-3.0307,-3.028,-3.0267,-3.027,-3.0225,-3.0238,-3.0236,-3.0234,-3.0218,-3.0214,-3.0211,-3.0254,-3.0254,-3.0254,0,0,-3.0442,-3.0432,-3.0413,-3.0402,-3.0385,-3.0377,-3.0373,-3.0355,-3.0349,-3.0324,-3.0321,-3.0304,-3.0271,-3.0258,-3.0246,-3.0218,-3.0216,-3.0213,-3.0201,-3.0185,-3.0181,-3.0179,-3.0168,-3.0164,-3.021,-3.021,-3.021,0,-3.0433,-3.0408,-3.0403,-3.0384,-3.0373,-3.0372,-3.0352,-3.0341,-3.0318,-3.0309,-3.0314,-3.0273,-3.026,-3.0229,-3.0222,-3.0214,-3.0207,-3.0214,-3.0183,-3.018,-3.0177,-3.0166,-3.0162,-3.0209,-3.0209,-3.0209,-3.021,0,-3.0397,-3.038,-3.0366,-3.0346,-3.0334,-3.0314,-3.0305,-3.0293,-3.029,-3.0282,-3.0256,-3.0241,-3.0219,-3.0211,-3.0208,-3.018,-3.0182,-3.0185,-3.0192,-3.0173,-3.0163,-3.0159,-3.0209,-3.0209,-3.0209,-3.0209,0,0,-3.0368,-3.0346,-3.0341,-3.0332,-3.0314,-3.0299,-3.028,-3.026,-3.0249,-3.0234,-3.0216,-3.0189,-3.0192,-3.0179,-3.0174,-3.016,-3.0138,-3.0164,-3.0164,-3.0159,-3.0105,-3.0102,-3.0097,-3.0137,-3.0136,-3.0136,-3.0106,0,-3.0341,-3.0307,-3.0302,-3.0272,-3.0255,-3.0255,-3.0237,-3.0223,-3.0216,-3.0199,-3.019,-3.017,-3.0176,-3.0168,-3.0155,-3.0143,-3.0126,-3.0146,-3.0119,-3.0118,-3.0122,-3.0092,-3.0088,-3.0061,-3.0102,-3.0101,-3.0101,0,-3.0304,-3.0289,-3.0258,-3.0242,-3.0235,-3.022,-3.0201,-3.0186,-3.017,-3.0165,-3.0152,-3.0149,-3.0127,-3.0137,-3.0106,-3.012,-3.0109,-3.0101,-3.01,-3.0096,-3.0107,-3.0085,-3.0052,-3.0047,-3.0095,-3.0095,-3.0095,0,-3.0285,-3.0257,-3.0234,-3.0226,-3.0208,-3.0197,-3.0189,-3.0174,-3.0162,-3.0146,-3.0138,-3.0119,-3.0108,-3.0093,-3.0084,-3.0092,-3.0053,-3.0063,-3.0047,-3.0048,-3.0038,-3.0038,-3.0001,-3.0033,-3.0033,-3.0033,-3.0033,0,-3.0254,-3.0234,-3.0225,-3.0211,-3.0189,-3.0184,-3.0161,-3.0153,-3.014,-3.0123,-3.0122,-3.0106,-3.0096,-3.0078,-3.0072,-3.0047,-3.0042,-3.0036,-3.0034,-3.0036,-3.0036,-3.0027,-3.0028,-3.0032,-3.0033,-3.0033,-3.0033,0,-3.0227,-3.0221,-3.0196,-3.0181,-3.0177,-3.0161,-3.0148,-3.0134,-3.0127,-3.0105,-3.01,-3.0088,-3.0068,-3.0058,-3.0032,-3.0028,-2.9999,-2.9999,-3.0004,-3.0003,-2.9988,-2.9989,-2.9942,-2.9935,-2.9974,-2.9973,-2.9973,0,-3.0207,-3.0192,-3.0177,-3.0166,-3.0158,-3.0141,-3.013,-3.0124,-3.0112,-3.0093,-3.0081,-3.0061,-3.0044,-3.0011,-2.9999,-2.9979,-2.9978,-2.9963,-2.9974,-2.9976,-2.9976,-2.9976,-2.9974,-2.996,-2.9959,-2.9959,-2.9959,0,-3.0172,-3.017,-3.0155,-3.0138,-3.0125,-3.0111,-3.0098,-3.0089,-3.0081,-3.0067,-3.0047,-3.0034,-3.0009,-2.9988,-2.9968,-2.9958,-2.9956,-2.9956,-2.9951,-2.9951,-2.9954,-2.9951,-2.9997,-2.9956,-2.9956,-2.9957,-2.9957,-2.9957,-3.0147,-3.0134,-3.0121,-3.0104,-3.0094,-3.0081,-3.0067,-3.0059,-3.0042,-3.0022,-3.002,-2.9998,-2.9982,-2.9955,-2.9944,-2.9926,-2.9929,-2.9922,-2.992,-2.9918,-2.9917,-2.9959,-2.9922,-2.9922,-2.9922,-2.9922,-2.9923,0,-3.0111,-3.0103,-3.0088,-3.007,-3.0056,-3.0058,-3.0044,-3.0031,-3.0013,-2.9999,-2.9983,-2.996,-2.994,-2.9927,-2.9907,-2.9895,-2.9894,-2.989,-2.989,-2.9887,-2.9916,-2.9921,-2.9891,-2.9891,-2.9891,-2.9891,-2.9891,-2.9891,-3.0091,-3.0068,-3.0064,-3.0036,-3.0028,-3.0008,-2.9999,-2.9987,-2.9977,-2.9951,-2.9935,-2.9928,-2.9914,-2.9893,-2.9875,-2.9871,-2.9863,-2.9859,-2.9855,-2.9882,-2.9885,-2.9888,-2.9893,-2.9857,-2.9857,-2.9828,-2.9828,-2.9827]}]]